[[{"header":{"parameterUnit":"m.s-1","parameterCategory":1,"la1":30.2992,"la2":30.254,"lo1":-89.0895,"lo2":-89.0443,"dy":0.0025,"dx":0.0025,"nx":19,"ny":19,"refTime":"2026-03-17T09:00:00:Z","depth":0,"parameterNumber":2,"parameterNumberName":"U-component_of_WINDS"},"data":[0,0,0,1.3219,1.3218,1.3194,1.3194,1.3158,1.3158,0,0,0,0,0,0,0,0,0,0,0,1.3224,1.3223,1.3219,1.3218,1.3194,1.3194,1.3158,1.3158,0,0,0,0,0,0,0,0,0,0,0,1.3224,1.3223,1.3223,1.3218,1.3194,1.3194,1.3159,1.3178,0,0,0,0,0,0,0,0,0,0,1.3202,1.3204,1.3223,1.3223,1.3218,1.3194,1.3194,1.3179,1.3177,1.3167,0,1.3159,0,1.3158,1.3155,1.3155,0,0,0,1.322,1.3206,1.3202,1.3223,1.3218,1.3194,1.3206,1.3178,1.3175,1.3164,1.3158,1.3157,1.3157,1.3155,1.3155,1.3099,1.3098,0,0,1.3221,1.3217,1.3204,1.3201,1.3205,1.3206,1.3205,1.3177,1.3169,1.3158,1.3156,1.3157,1.3155,1.3155,1.3099,1.3098,0,0,0,1.3224,1.3218,1.3215,1.3202,1.3198,1.3206,1.3204,1.3171,1.317,1.3156,1.3156,1.3155,1.3154,1.3099,1.3099,1.308,0,0,0,1.3225,1.322,1.3216,1.3213,1.3199,1.3184,1.3198,1.3172,1.3169,1.3157,1.3155,1.3154,1.31,1.3099,1.3081,1.307,0,0,0,1.3226,1.322,1.3216,1.3213,1.3203,1.3185,1.3183,1.3171,1.3169,1.3155,1.3154,1.31,1.3099,1.3082,1.3072,1.3054,0,0,0,1.3225,1.3198,1.3216,1.3185,1.3203,1.3174,1.3183,1.3161,1.3147,1.3154,1.31,1.3099,1.3082,1.3073,1.3056,1.3038,1.3031,0,0,1.3188,1.3193,1.3176,1.3191,1.3158,1.3178,1.3142,1.3131,1.3132,1.311,1.3108,1.308,1.3072,1.3055,1.2994,1.2988,0,0,0,1.3163,1.315,1.3142,1.313,1.3123,1.3116,1.3112,1.3109,1.309,1.312,1.307,1.3065,1.3055,1.3047,1.3042,1.3033,1.3095,1.3095,1.3095,1.3102,1.3108,1.308,1.3083,1.3071,1.3069,1.306,1.3055,1.3061,1.305,1.3042,1.3005,1.2995,1.2991,1.2982,1.3035,1.3035,1.3035,1.3035,1.3048,1.303,1.3044,1.3021,1.3027,1.3008,1.3006,1.3012,1.2994,1.301,1.3002,1.3017,1.2985,1.2977,1.3033,1.3033,1.3034,1.3034,1.3034,1.3007,1.3,1.2999,1.2983,1.2971,1.2976,1.2959,1.2965,1.297,1.2962,1.2955,1.2955,1.2955,1.2959,1.2959,1.2958,1.2958,1.2958,1.2958,1.2965,1.2965,1.2951,1.2944,1.2938,1.2931,1.2932,1.2926,1.2921,1.2926,1.2926,1.2934,1.2982,1.2993,1.2956,1.2956,1.2957,1.2957,1.2957,1.2904,1.292,1.2898,1.2893,1.2886,1.2874,1.2884,1.2872,1.2869,1.286,1.2872,1.2907,1.2911,1.2915,1.2924,1.2871,1.2871,1.2871,1.2871,1.2869,1.2874,1.2854,1.2845,1.2837,1.2845,1.282,1.2821,1.2824,1.2823,1.2832,1.2845,1.2849,1.2851,1.2856,1.2865,1.2798,1.2798,1.2798,1.2832,1.2836,1.2813,1.2819,1.2816,1.2812,1.2789,1.2779,1.2786,1.2795,1.2821,1.2824,1.2846,1.2853,1.286,1.2868,1.2884,0,0]},{"header":{"parameterUnit":"m.s-1","parameterCategory":1,"la1":30.2992,"la2":30.254,"lo1":-89.0895,"lo2":-89.0443,"dy":0.0025,"dx":0.0025,"nx":19,"ny":19,"refTime":"2026-03-17T09:00:00:Z","depth":0,"parameterNumber":3,"parameterNumberName":"V-component_of_WINDS"},"data":[0,0,0,-6.8574,-6.8579,-6.8841,-6.8841,-6.9189,-6.9192,0,0,0,0,0,0,0,0,0,0,0,-6.8509,-6.8511,-6.8573,-6.858,-6.884,-6.8842,-6.9188,-6.9192,0,0,0,0,0,0,0,0,0,0,0,-6.8507,-6.8511,-6.8514,-6.8581,-6.884,-6.8842,-6.9187,-6.8985,0,0,0,0,0,0,0,0,0,0,-6.8729,-6.8682,-6.851,-6.8514,-6.8583,-6.884,-6.8842,-6.8975,-6.8997,-6.9077,0,-6.9156,0,-6.918,-6.9216,-6.9218,0,0,0,-6.857,-6.8663,-6.8722,-6.8515,-6.8585,-6.884,-6.872,-6.8987,-6.9013,-6.9108,-6.916,-6.9173,-6.9185,-6.9219,-6.922,-6.9723,-6.9726,0,0,-6.8556,-6.8561,-6.8705,-6.874,-6.8705,-6.8712,-6.8728,-6.9002,-6.9059,-6.9162,-6.918,-6.9191,-6.9221,-6.9224,-6.9721,-6.9724,0,0,0,-6.8521,-6.8552,-6.8604,-6.8726,-6.8772,-6.872,-6.8739,-6.9047,-6.9063,-6.9184,-6.9195,-6.9223,-6.9228,-6.9718,-6.9722,-6.9868,0,0,0,-6.8512,-6.8532,-6.8598,-6.8605,-6.8768,-6.8914,-6.8777,-6.9044,-6.9075,-6.9193,-6.9223,-6.9231,-6.9715,-6.972,-6.9857,-6.9935,0,0,0,-6.8487,-6.8528,-6.8571,-6.8604,-6.8717,-6.8909,-6.8941,-6.9051,-6.9083,-6.9218,-6.9232,-6.9713,-6.9719,-6.9847,-6.9919,-7.0068,0,0,0,-6.8462,-6.8697,-6.8573,-6.8839,-6.8715,-6.8999,-6.8939,-6.915,-6.9283,-6.9225,-6.9715,-6.9722,-6.9844,-6.991,-7.0058,-7.0194,-7.0251,0,0,-6.8761,-6.8733,-6.8888,-6.8786,-6.9093,-6.8958,-6.9285,-6.9401,-6.9407,-6.9616,-6.9629,-6.986,-6.9918,-7.0066,-7.0574,-7.062,0,0,0,-6.8985,-6.9096,-6.9176,-6.9305,-6.9401,-6.9487,-6.9552,-6.9594,-6.9772,-6.9517,-6.9955,-6.9989,-7.0075,-7.0139,-7.0179,-7.0251,-6.9752,-6.9751,-6.9751,-6.9416,-6.9412,-6.9668,-6.9696,-6.9821,-6.9885,-6.9984,-7.0051,-7.001,-7.0114,-7.0176,-7.0485,-7.0561,-7.059,-7.0666,-7.0248,-7.0249,-7.0249,-7.0249,-6.9852,-7.0008,-6.9948,-7.0175,-7.0168,-7.0357,-7.0427,-7.0391,-7.0563,-7.0438,-7.0514,-7.0377,-7.0641,-7.0706,-7.026,-7.0259,-7.0257,-7.0256,-7.0255,-7.0133,-7.0207,-7.0256,-7.0439,-7.0581,-7.0599,-7.0767,-7.0755,-7.0744,-7.0819,-7.0881,-7.0879,-7.0873,-7.085,-7.0851,-7.0852,-7.0853,-7.0853,-7.0854,-7.0405,-7.0455,-7.06,-7.072,-7.0799,-7.0902,-7.0967,-7.1043,-7.1124,-7.1101,-7.1102,-7.1049,-7.0668,-7.0572,-7.0871,-7.0868,-7.0866,-7.0864,-7.0863,-7.0847,-7.0744,-7.0969,-7.1049,-7.1186,-7.1325,-7.1307,-7.1464,-7.1525,-7.1608,-7.1538,-7.126,-7.1229,-7.1198,-7.1118,-7.154,-7.154,-7.154,-7.154,-7.1083,-7.1066,-7.1292,-7.142,-7.1543,-7.1549,-7.1798,-7.1849,-7.1886,-7.1922,-7.1859,-7.1752,-7.1721,-7.1709,-7.1667,-7.1592,-7.2125,-7.2126,-7.2126,-7.1353,-7.1348,-7.1565,-7.1601,-7.1707,-7.1796,-7.203,-7.2175,-7.2195,-7.2149,-7.195,-7.1925,-7.1752,-7.1697,-7.1647,-7.1582,-7.1444,0,0]}]]